Home   Weather   San Jose   Past weeks

Flag for USA Past Weather in San Jose, California, USA — Yesterday and Last 2 Weeks

Now
41 °F

Broken clouds.


Feels Like: 36 °F
Forecast: 40 / 55 °F
Wind: 7 mph from Southeast

Location: San Jose International Airport

Current Time: Feb 25, 2017 at 8:31:39 am

Latest Report: Feb 25, 2017 at 7:53 am


Visibility: 10 mi

Pressure: 30.19 "Hg

Humidity: 80%

Dew Point: 35 °F

Location of San JoseLocation

Past Weather in San Jose — Graph

°F

San Jose Temperature Yesterday

Maximum temperature yesterday: 56 °F (at 1:53 pm)
Minimum temperature yesterday: 35 °F (at 5:53 am)
Average temperature yesterday: 46 °F

High & Low Weather Summary for the Past Weeks

 TemperatureHumidityPressure
High70 °F (Feb 14, 2:53 pm)100% (Feb 13, 8:30 am)30.29 "Hg (Feb 13, 8:30 am)
Low35 °F (Feb 24, 5:53 am)37% (Feb 12, 12:53 pm)29.14 "Hg (Feb 17, 4:53 pm)
Average53 °F74%30.01 "Hg
* Reported Feb 10 6:53 am — Feb 25 6:53 am, San Jose, Weather by CustomWeather, © 2017

Note: Actual official high and low records may vary slightly from our data, if they occured in-between our weather recording intervals... More about our weather records

Advertising

San Jose Weather History for the Previous 24 Hours

Scroll right to see more
 ConditionsComfort  
Time TempWeatherWind HumidityBarometerVisibility
6:53 am
Sat, Feb 25
41 °FBroken clouds.6 mph80%30.19 "Hg10 mi
5:53 am40 °FPartly cloudy.5 mph86%30.18 "Hg10 mi
4:53 am37 °FPassing clouds.5 mph86%30.19 "Hg10 mi
3:53 am38 °FClear.No wind83%30.19 "Hg10 mi
2:53 am38 °FClear.6 mph86%30.19 "Hg10 mi
1:53 am37 °FClear.6 mph86%30.22 "Hg10 mi
12:53 am39 °FClear.5 mph79%30.23 "Hg10 mi
11:53 pm
Fri, Feb 24
42 °FPassing clouds.3 mph73%30.23 "Hg10 mi
10:53 pm43 °FPassing clouds.3 mph74%30.24 "Hg10 mi
9:53 pm45 °FPassing clouds.3 mph68%30.24 "Hg10 mi
8:53 pm45 °FPartly cloudy.5 mph68%30.24 "Hg10 mi
7:53 pm47 °FPartly cloudy.10 mph64%30.24 "Hg10 mi
6:53 pm48 °FPartly cloudy.9 mph59%30.22 "Hg10 mi
5:53 pm50 °FBroken clouds.12 mph54%30.21 "Hg10 mi
4:53 pm53 °FBroken clouds.13 mph41%30.21 "Hg10 mi
3:53 pm55 °FBroken clouds.12 mph39%30.22 "Hg10 mi
2:53 pm56 °FBroken clouds.10 mph42%30.22 "Hg10 mi
1:53 pm56 °FBroken clouds.6 mph42%30.23 "Hg10 mi
12:53 pm53 °FBroken clouds.9 mph52%30.25 "Hg10 mi
11:53 am53 °FBroken clouds.No wind51%30.27 "Hg10 mi
10:53 am53 °FBroken clouds.3 mph52%30.28 "Hg10 mi
9:53 am50 °FScattered clouds.No wind59%30.28 "Hg10 mi
8:53 am45 °FScattered clouds.5 mph74%30.28 "Hg10 mi
Weather by CustomWeather, © 2017

See weather overviewHow to use our weather pages